Le nostre stazioni meteo in Italia

Pubblicità
Il mio iltempo24.it
Ferrara, Italia (16133): Temperatura & dewpoint: 10.02.2019 07:00:00 - 16.02.2019 07:00:00 (CET)Ferrara, Italia (16133): velocità del vento: 10.02.2019 07:00:00 - 16.02.2019 07:00:00 (CET)Ferrara, Italia (16133): direzione del vento: 10.02.2019 07:00:00 - 16.02.2019 07:00:00 (CET)Ferrara, Italia (16133): reduced air pressure: 10.02.2019 07:00:00 - 16.02.2019 07:00:00 (CET)Ferrara, Italia (16133): precipitazioni: 10.02.2019 07:00:00 - 16.02.2019 07:00:00 (CET)
Data & Tempo tt [°C] td [°C] ff [km/h] ff [kn] dd ppp [hPa] rr [mm]
16.02.2019 07:00:00 - - - - - - -
16.02.2019 06:00:00 2,5 0,6 3 2 O 1031,8 0,0
16.02.2019 05:00:00 0,3 -1,3 0 0 N 1032,5 -
16.02.2019 04:00:00 5,1 1,2 5 3 NE 1031,9 0,0
16.02.2019 03:00:00 4,8 1,3 6 3 NE 1032,2 0,0
16.02.2019 02:00:00 2,5 1,0 0 0 N 1033,1 -
16.02.2019 01:00:00 6,2 1,3 - - - 1032,9 0,0
16.02.2019 00:00:00 - - - - - - -
15.02.2019 23:00:00 4,6 1,0 0 0 N 1032,9 -
15.02.2019 22:00:00 7,3 0,9 6 3 SE 1032,5 0,0
15.02.2019 21:00:00 7,6 1,0 9 5 SSE 1032,3 0,0
15.02.2019 20:00:00 8,1 1,4 2 1 SE 1032,5 -
15.02.2019 19:00:00 9,3 0,7 8 5 SE 1032,0 0,0
15.02.2019 18:00:00 11,4 2,7 9 5 SE 1031,5 0,0
15.02.2019 17:00:00 13,2 2,9 5 3 E 1031,2 -
15.02.2019 16:00:00 13,6 1,9 6 3 E 1030,7 0,0
15.02.2019 15:00:00 13,9 1,2 3 2 S 1030,6 0,0
15.02.2019 14:00:00 11,6 4,3 4 2 O 1032,3 -
15.02.2019 13:00:00 11,5 1,7 4 2 NO 1031,8 0,0
15.02.2019 12:00:00 9,0 2,3 8 4 O 1032,4 0,0
15.02.2019 11:00:00 3,6 2,1 4 2 ONO 1033,3 -
15.02.2019 10:00:00 4,4 0,4 5 3 O 1032,9 0,0
15.02.2019 09:00:00 2,1 -0,7 10 5 O 1032,9 0,0
15.02.2019 08:00:00 -0,7 -2,2 0 0 N 1033,1 -
15.02.2019 07:00:00 0,8 -0,1 12 6 O 1032,6 0,0
15.02.2019 06:00:00 3,0 1,2 7 4 NO 1032,7 0,0
15.02.2019 05:00:00 0,3 -1,2 0 0 N 1033,4 -
15.02.2019 04:00:00 3,6 1,2 6 3 ONO 1032,8 0,0
15.02.2019 03:00:00 2,7 1,1 8 4 ONO 1032,7 0,0
15.02.2019 02:00:00 1,3 -0,2 0 0 N 1033,9 -
15.02.2019 01:00:00 5,4 2,1 2 1 ONO 1033,3 0,0
15.02.2019 00:00:00 5,3 2,1 2 1 O 1033,2 0,0
14.02.2019 23:00:00 4,6 1,8 0 0 N 1033,2 -
14.02.2019 22:00:00 7,2 2,3 6 4 NE 1033,0 0,0
14.02.2019 21:00:00 7,8 2,5 2 1 NNO 1032,8 0,0
14.02.2019 20:00:00 7,1 0,2 0 0 N 1033,6 -
14.02.2019 19:00:00 10,0 1,6 6 3 NE 1033,3 0,0
14.02.2019 18:00:00 11,5 1,2 2 1 SO 1032,5 0,0
14.02.2019 17:00:00 12,4 2,4 5 3 OSO 1033,1 -
14.02.2019 16:00:00 12,6 0,7 9 5 O 1032,6 0,0
14.02.2019 15:00:00 12,3 0,4 6 4 O 1033,2 0,0
14.02.2019 14:00:00 10,7 2,4 9 5 O 1035,1 -
14.02.2019 13:00:00 10,3 0,3 10 5 ONO 1034,7 0,0
14.02.2019 12:00:00 6,3 3,4 4 2 O 1036,6 -
14.02.2019 11:00:00 2,7 0,7 - - - 1036,6 -
14.02.2019 10:00:00 1,2 -0,6 0 0 N 1037,0 -
14.02.2019 09:00:00 -0,5 -2,1 0 0 N 1036,9 -
14.02.2019 08:00:00 -0,2 -2,0 0 0 N 1036,9 -
14.02.2019 07:00:00 0,0 -1,5 0 0 N 1037,1 0,0
14.02.2019 06:00:00 -0,9 -2,5 0 0 N 1037,3 -
14.02.2019 05:00:00 0,1 -1,7 2 1 O 1037,5 -
14.02.2019 04:00:00 0,3 -1,5 0 0 N 1037,6 -
14.02.2019 03:00:00 -0,4 -2,6 0 0 N 1038,0 -
14.02.2019 02:00:00 0,0 -2,9 0 0 N 1038,3 -
14.02.2019 01:00:00 0,9 -3,1 0 0 N 1038,1 0,0
14.02.2019 00:00:00 2,5 -1,9 0 0 N 1038,0 -
13.02.2019 23:00:00 3,0 -2,0 0 0 N 1038,0 -
13.02.2019 22:00:00 3,9 -1,7 0 0 N 1037,5 -
13.02.2019 21:00:00 5,4 -1,2 2 1 ESE 1037,2 -
13.02.2019 20:00:00 6,8 -2,7 0 0 N 1036,6 -
13.02.2019 19:00:00 8,8 -2,6 - - - 1036,0 0,0
13.02.2019 18:00:00 11,4 -2,2 5 3 SSO 1035,6 -
13.02.2019 17:00:00 11,8 -2,5 4 2 SSO 1035,6 -
13.02.2019 16:00:00 12,3 -2,1 5 3 SSO 1036,0 -
13.02.2019 15:00:00 11,8 -2,2 8 4 S 1036,3 -
13.02.2019 14:00:00 11,3 -3,0 11 6 S 1036,3 -
13.02.2019 13:00:00 10,6 1,6 9 5 SO 1037,4 0,0
13.02.2019 12:00:00 7,6 3,8 4 2 E 1037,1 -
13.02.2019 11:00:00 5,1 3,6 - - - 1037,0 -
13.02.2019 10:00:00 3,2 1,7 - - - 1036,4 -
13.02.2019 09:00:00 1,5 0,0 4 2 NE 1035,6 -
13.02.2019 08:00:00 1,3 -0,2 2 1 ENE 1034,7 -
13.02.2019 07:00:00 1,4 -0,1 0 0 N 1034,2 0,0
13.02.2019 06:00:00 1,8 0,3 4 2 ENE 1033,6 -
13.02.2019 05:00:00 2,7 1,2 4 2 NE 1033,1 -
13.02.2019 04:00:00 3,5 2,0 - - - 1032,8 -
13.02.2019 03:00:00 3,7 2,2 8 4 ENE 1032,6 -
13.02.2019 02:00:00 3,3 1,8 8 4 NE 1032,2 -
13.02.2019 01:00:00 3,2 1,7 11 6 NE 1031,8 0,0
13.02.2019 00:00:00 3,1 -0,4 4 2 NE 1030,5 -
12.02.2019 23:00:00 3,7 -1,1 0 0 N 1029,8 -
12.02.2019 22:00:00 4,7 -1,4 - - - 1028,6 -
12.02.2019 21:00:00 6,3 -1,9 5 3 ESE 1027,5 -
12.02.2019 20:00:00 6,7 -4,2 2 1 ENE 1026,4 -
12.02.2019 19:00:00 8,9 -5,5 - - - 1025,3 0,0
12.02.2019 18:00:00 12,7 -5,5 8 4 OSO 1024,4 -
12.02.2019 17:00:00 13,1 -4,7 15 8 O 1024,1 -
12.02.2019 16:00:00 13,5 -5,3 18 10 O 1023,9 -
12.02.2019 15:00:00 12,9 -4,4 18 10 N 1023,8 -
12.02.2019 14:00:00 12,7 -3,3 16 9 NNE 1024,1 -
12.02.2019 13:00:00 11,0 -2,9 16 9 O 1024,6 0,0
12.02.2019 12:00:00 8,3 -2,2 16 9 OSO 1024,9 -
12.02.2019 11:00:00 5,3 -3,6 - - - 1025,0 -
12.02.2019 10:00:00 3,0 -3,0 - - - 1025,0 -
12.02.2019 09:00:00 1,4 -3,4 11 6 O 1024,0 -
12.02.2019 08:00:00 0,8 -3,7 15 8 ONO 1023,9 -
12.02.2019 07:00:00 1,0 -4,1 13 7 O 1023,3 0,0
12.02.2019 06:00:00 0,9 -4,0 9 5 O 1022,5 -
12.02.2019 05:00:00 1,4 -3,9 9 5 O 1022,1 -
12.02.2019 04:00:00 2,3 -3,5 15 8 O 1022,1 -
12.02.2019 03:00:00 2,3 -3,1 11 6 O 1021,9 -
12.02.2019 02:00:00 2,7 -2,9 11 6 O 1021,5 -
12.02.2019 01:00:00 4,4 -3,2 - - - 1020,3 0,0
12.02.2019 00:00:00 5,0 -2,0 - - - 1019,5 -
11.02.2019 23:00:00 5,5 -0,9 - - - 1018,7 -
11.02.2019 22:00:00 6,9 -0,2 9 5 O 1017,7 -
11.02.2019 21:00:00 7,4 -0,7 8 4 ONO 1016,8 -
11.02.2019 20:00:00 8,1 -0,5 8 4 ONO 1015,7 -
11.02.2019 19:00:00 9,1 -1,2 11 6 ONO 1014,1 0,0
11.02.2019 18:00:00 10,8 -0,2 9 5 ONO 1013,4 -
11.02.2019 17:00:00 11,2 1,9 11 6 O 1012,5 -
11.02.2019 16:00:00 11,3 4,0 13 7 ONO 1011,8 -
11.02.2019 15:00:00 10,1 3,5 15 8 ONO 1011,6 -
11.02.2019 14:00:00 8,6 4,0 11 6 ONO 1011,5 -
11.02.2019 13:00:00 7,8 4,3 13 7 NE 1011,3 0,0
11.02.2019 12:00:00 6,1 3,0 - - - 1010,6 -
11.02.2019 11:00:00 5,7 3,3 - - - 1009,6 -
11.02.2019 10:00:00 4,7 3,2 - - - 1008,4 -
11.02.2019 09:00:00 3,8 2,3 13 7 O 1007,9 -
11.02.2019 08:00:00 3,6 2,1 13 7 O 1006,8 -
11.02.2019 07:00:00 4,6 3,1 - - - 1006,6 -
11.02.2019 06:00:00 5,1 3,6 - - - 1006,2 -
11.02.2019 05:00:00 5,6 4,1 - - - 1006,7 -
11.02.2019 04:00:00 6,0 4,5 - - - 1006,7 -
11.02.2019 03:00:00 5,9 4,4 - - - 1006,1 -
11.02.2019 02:00:00 6,1 4,6 - - - 1007,0 -
11.02.2019 01:00:00 6,8 5,3 - - - 1005,8 0,0
11.02.2019 00:00:00 6,9 5,4 - - - 1005,8 -
10.02.2019 23:00:00 7,1 5,5 - - - 1007,1 -
10.02.2019 22:00:00 6,9 5,4 - - - 1008,1 -
10.02.2019 21:00:00 7,0 5,5 - - - 1008,8 -
10.02.2019 20:00:00 7,3 5,7 9 5 NE 1009,4 -
10.02.2019 19:00:00 8,1 6,5 11 6 NNE 1010,9 0,0
10.02.2019 18:00:00 9,4 7,8 9 5 NNE 1012,0 -
10.02.2019 17:00:00 10,3 8,5 11 6 NE 1012,9 -
10.02.2019 16:00:00 11,0 9,1 9 5 NE 1013,7 -
10.02.2019 15:00:00 10,2 8,6 9 5 NE 1014,6 -
10.02.2019 14:00:00 9,6 8,0 8 4 NE 1016,1 -
10.02.2019 13:00:00 8,7 7,1 11 6 NE 1017,6 0,0
10.02.2019 12:00:00 7,4 5,8 9 5 NE 1018,5 -
10.02.2019 11:00:00 6,3 4,8 - - - 1018,7 -
10.02.2019 10:00:00 5,9 4,4 - - - 1019,1 -
10.02.2019 09:00:00 5,6 4,1 - - - 1019,2 -
10.02.2019 08:00:00 5,6 4,1 - - - 1019,4 -
10.02.2019 07:00:00 5,7 4,2 - - - 1019,9 0,0

tt = Temperatura
td = dewpoint
ff = velocità del vento
dd = direzione del vento
ppp = reduced air pressure
rr = precipitazioni

Stazioni seguenti

WeatherPro
AMSI
MeteoEarth